| time (UTC) | temp F | wind direction | speed MPH | gust MPH | rain 1hr in | rain 24hr in | rain mn in | humidity % | barometer mb |
| 20260905013703 | 92 | 151 | 3.0 | 6.0 | 0.00 | 0.00 | 0.00 | 52 | 1013.3 |
| 20260905013203 | 92 | 147 | 3.0 | 6.0 | 0.00 | 0.00 | 0.00 | 52 | 1013.1 |
| 20260905010703 | 94 | 135 | 3.0 | 6.0 | 0.00 | 0.00 | 0.00 | 50 | 1013.0 |
| 20260905010202 | 94 | 148 | 3.0 | 8.0 | 0.00 | 0.00 | 0.00 | 50 | 1013.0 |
| 20260905003703 | 95 | 136 | 5.0 | 7.0 | 0.00 | 0.00 | 0.00 | 48 | 1012.8 |
| 20260905000702 | 97 | 132 | 5.0 | 9.0 | 0.00 | 0.00 | 0.00 | 46 | 1012.8 |
| 20260905000204 | 97 | 149 | 5.0 | 12.0 | 0.00 | 0.00 | 0.00 | 45 | 1012.8 |
| 20260904233703 | 98 | 145 | 6.0 | 10.0 | 0.00 | 0.00 | 0.00 | 44 | 1012.9 |
| 20260904233203 | 98 | 150 | 3.0 | 13.0 | 0.00 | 0.00 | 0.00 | 45 | 1012.8 |
| 20260904230703 | 99 | 169 | 3.0 | 7.0 | 0.00 | 0.00 | 0.00 | 44 | 1012.8 |
| 20260904230203 | 99 | 183 | 3.0 | 13.0 | 0.00 | 0.00 | 0.00 | 45 | 1012.9 |
| 20260904223703 | 99 | 133 | 5.0 | 10.0 | 0.00 | 0.00 | 0.00 | 44 | 1012.7 |
| 20260904223203 | 99 | 126 | 5.0 | 12.0 | 0.00 | 0.00 | 0.00 | 45 | 1012.7 |
| 20260904220704 | 99 | 152 | 6.0 | 12.0 | 0.00 | 0.00 | 0.00 | 44 | 1012.7 |
| 20260904220203 | 99 | 150 | 7.0 | 15.0 | 0.00 | 0.00 | 0.00 | 45 | 1012.7 |
| 20260904213703 | 99 | 158 | 5.0 | 13.0 | 0.00 | 0.00 | 0.00 | 46 | 1012.8 |
| 20260904213203 | 99 | 161 | 6.0 | 15.0 | 0.00 | 0.00 | 0.00 | 46 | 1012.9 |
| 20260904210203 | 98 | 129 | 8.0 | 14.0 | 0.00 | 0.00 | 0.00 | 45 | 1013.3 |
| 20260904203702 | 99 | 210 | 3.0 | 9.0 | 0.00 | 0.00 | 0.00 | 46 | 1013.5 |
| 20260904203203 | 98 | 216 | 3.0 | 15.0 | 0.00 | 0.00 | 0.00 | 46 | 1013.6 |
| 20260904200703 | 98 | 144 | 7.0 | 13.0 | 0.00 | 0.00 | 0.00 | 47 | 1013.9 |
| 20260904200203 | 97 | 165 | 7.0 | 13.0 | 0.00 | 0.00 | 0.00 | 48 | 1013.9 |
| 20260904193703 | 98 | 142 | 6.0 | 12.0 | 0.00 | 0.00 | 0.00 | 49 | 1014.1 |
| 20260904193202 | 97 | 178 | 4.0 | 15.0 | 0.00 | 0.00 | 0.00 | 49 | 1014.2 |
| 20260904190703 | 96 | 142 | 7.0 | 17.0 | 0.00 | 0.00 | 0.00 | 50 | 1014.3 |
| 20260904190203 | 96 | 161 | 9.0 | 14.0 | 0.00 | 0.00 | 0.00 | 49 | 1014.4 |
| 20260904183702 | 96 | 120 | 7.0 | 14.0 | 0.00 | 0.00 | 0.00 | 51 | 1014.7 |
| 20260904183203 | 95 | 149 | 7.0 | 14.0 | 0.00 | 0.00 | 0.00 | 51 | 1014.8 |
| 20260904180703 | 94 | 174 | 6.0 | 12.0 | 0.00 | 0.00 | 0.00 | 54 | 1015.1 |
| 20260904180203 | 94 | 181 | 6.0 | 15.0 | 0.00 | 0.00 | 0.00 | 55 | 1015.1 |
| 20260904173203 | 92 | 207 | 3.0 | 14.0 | 0.00 | 0.00 | 0.00 | 58 | 1015.6 |
| 20260904170703 | 91 | 167 | 6.0 | 13.0 | 0.00 | 0.00 | 0.00 | 61 | 1015.8 |
| 20260904170202 | 91 | 131 | 6.0 | 14.0 | 0.00 | 0.00 | 0.00 | 60 | 1015.9 |
| 20260904163703 | 90 | 149 | 7.0 | 14.0 | 0.00 | 0.00 | 0.00 | 62 | 1016.0 |
| 20260904163202 | 90 | 155 | 7.0 | 14.0 | 0.00 | 0.00 | 0.00 | 62 | 1016.0 |
| 20260904160702 | 88 | 168 | 7.0 | 14.0 | 0.00 | 0.00 | 0.00 | 66 | 1016.3 |
| 20260904160203 | 88 | 162 | 3.0 | 12.0 | 0.00 | 0.00 | 0.00 | 66 | 1016.2 |
| 20260904150703 | 85 | 145 | 5.0 | 8.0 | 0.00 | 0.00 | 0.00 | 71 | 1016.0 |
| 20260904150202 | 84 | 172 | 3.0 | 14.0 | 0.00 | 0.00 | 0.00 | 71 | 1016.0 |
| 20260904143703 | 82 | 167 | 5.0 | 9.0 | 0.00 | 0.00 | 0.00 | 73 | 1016.0 |
| 20260904143202 | 82 | 153 | 5.0 | 12.0 | 0.00 | 0.00 | 0.00 | 73 | 1016.0 |
| 20260904140702 | 81 | 135 | 5.0 | 12.0 | 0.00 | 0.00 | 0.00 | 75 | 1016.1 |
| 20260904140203 | 81 | 151 | 3.0 | 12.0 | 0.00 | 0.00 | 0.00 | 75 | 1016.2 |
| 20260904133703 | 79 | 156 | 5.0 | 9.0 | 0.00 | 0.00 | 0.00 | 78 | 1016.0 |
| 20260904130703 | 76 | 132 | 4.0 | 9.0 | 0.00 | 0.00 | 0.00 | 82 | 1015.9 |
| 20260904130202 | 76 | 138 | 3.0 | 7.0 | 0.00 | 0.00 | 0.00 | 83 | 1015.8 |
| 20260904123703 | 75 | 133 | 3.0 | 7.0 | 0.00 | 0.00 | 0.00 | 84 | 1015.6 |
| 20260904120703 | 74 | 140 | 5.0 | 8.0 | 0.00 | 0.00 | 0.00 | 83 | 1015.3 |
| 20260904120204 | 74 | 136 | 3.0 | 7.0 | 0.00 | 0.00 | 0.00 | 84 | 1015.3 |
| 20260904113703 | 74 | 124 | 3.0 | 7.0 | 0.00 | 0.00 | 0.00 | 83 | 1015.3 |
| 20260904110203 | 75 | 126 | 2.0 | 8.0 | 0.00 | 0.00 | 0.00 | 82 | 1015.4 |
| 20260904103703 | 75 | 128 | 2.0 | 5.0 | 0.00 | 0.00 | 0.00 | 82 | 1015.2 |
| 20260904103203 | 75 | 136 | 3.0 | 6.0 | 0.00 | 0.00 | 0.00 | 81 | 1015.2 |
| 20260904100703 | 76 | 138 | 2.0 | 5.0 | 0.00 | 0.00 | 0.00 | 81 | 1015.2 |
| 20260904100203 | 76 | 135 | 2.0 | 5.0 | 0.00 | 0.00 | 0.00 | 81 | 1015.3 |
| 20260904093203 | 76 | 160 | 2.0 | 5.0 | 0.00 | 0.00 | 0.00 | 79 | 1015.2 |
| 20260904090703 | 77 | 153 | 2.0 | 3.0 | 0.00 | 0.00 | 0.00 | 79 | 1014.8 |
| 20260904090203 | 77 | 150 | 1.0 | 5.0 | 0.00 | 0.00 | 0.00 | 79 | 1014.9 |
| 20260904083203 | 77 | 155 | 3.0 | 6.0 | 0.00 | 0.00 | 0.00 | 78 | 1014.8 |
| 20260904080703 | 78 | 121 | 3.0 | 6.0 | 0.00 | 0.00 | 0.00 | 77 | 1014.6 |
| 20260904080203 | 78 | 145 | 2.0 | 6.0 | 0.00 | 0.00 | 0.00 | 77 | 1014.6 |
| 20260904073703 | 78 | 130 | 1.0 | 3.0 | 0.00 | 0.00 | 0.00 | 76 | 1014.7 |
| 20260904073203 | 78 | 130 | 2.0 | 3.0 | 0.00 | 0.00 | 0.00 | 75 | 1014.8 |
| 20260904070703 | 79 | 121 | 3.0 | 5.0 | 0.00 | 0.00 | 0.00 | 74 | 1014.7 |
| 20260904070203 | 79 | 146 | 3.0 | 6.0 | 0.00 | 0.00 | 0.00 | 74 | 1014.7 |
| 20260904063703 | 80 | 144 | 2.0 | 5.0 | 0.00 | 0.00 | 0.00 | 73 | 1014.9 |
| 20260904063202 | 80 | 159 | 1.0 | 6.0 | 0.00 | 0.00 | 0.00 | 73 | 1014.9 |
| 20260904060703 | 80 | 163 | 3.0 | 6.0 | 0.00 | 0.00 | 0.00 | 72 | 1014.9 |
| 20260904060203 | 81 | 148 | 3.0 | 7.0 | 0.00 | 0.00 | 0.00 | 71 | 1014.8 |
| 20260904053703 | 81 | 151 | 4.0 | 7.0 | 0.00 | 0.00 | 0.00 | 70 | 1014.7 |
| 20260904050704 | 82 | 158 | 4.0 | 6.0 | 0.00 | 0.00 | 0.00 | 69 | 1014.5 |
| 20260904050202 | 82 | 157 | 4.0 | 8.0 | 0.00 | 0.00 | 0.00 | 69 | 1014.6 |
| 20260904043703 | 83 | 166 | 2.0 | 6.0 | 0.00 | 0.00 | 0.00 | 68 | 1014.7 |
| 20260904043203 | 83 | 164 | 1.0 | 10.0 | 0.00 | 0.00 | 0.00 | 68 | 1014.7 |
| 20260904040203 | 84 | 147 | 4.0 | 9.0 | 0.00 | 0.00 | 0.00 | 66 | 1014.8 |
| 20260904033704 | 85 | 149 | 3.0 | 8.0 | 0.00 | 0.00 | 0.00 | 65 | 1014.8 |
| 20260904033203 | 85 | 157 | 4.0 | 12.0 | 0.00 | 0.00 | 0.00 | 64 | 1014.8 |
| 20260904030204 | 86 | 146 | 6.0 | 9.0 | 0.00 | 0.00 | 0.00 | 63 | 1014.5 |
| 20260904023203 | 86 | 154 | 4.0 | 12.0 | 0.00 | 0.00 | 0.00 | 62 | 1014.2 |
| 20260904020704 | 87 | 167 | 4.0 | 9.0 | 0.00 | 0.00 | 0.00 | 61 | 1013.9 |
| 20260904020204 | 87 | 154 | 5.0 | 12.0 | 0.00 | 0.00 | 0.00 | 60 | 1013.8 |